Location: Unspecified
(0.0000°N, 0.0000°E)
Time: 18:31:16
(UTC+00:00)

Hubble Space Telescope - Pass Details

Date: 05 May 2021
Orbit: 535 x 539 km, 28.5° (Epoch: 14 May)

Event Time Altitude Azimuth Distance (km) Brightness Sun altitude
Rises 19:41:21 0° 307° (NW) 2,668 5.5 -25.0°
Reaches altitude 10° 19:43:38 10° 312° (NW) 1,779 4.3 -25.6°
Enters shadow 19:46:30 40° 336° (NNW) 800 1.9 -26.2°
